Regional Weather Roundup
Issued by NWS

Home | Current Version | Previous Version | Text Only | Print | Product List | Glossary On
Versions: 1 2 3 4 5 6 7 8 9 10 11 12 13 14 15 16 17 18 19 20 21 22 23 24 25 26 27 28 29 30 31 32 33 34 35 36 37 38 39 40 41 42 43 44 45 46 47 48 49 50
000
ASUS43 KDTX 202310
RWRMI
MICHIGAN HOURLY REGIONAL WEATHER ROUNDUP
NATIONAL WEATHER SERVICE DETROIT/PONTIAC MI
700 PM EDT WED AUG 20 2014

NOTE: "FAIR" INDICATES FEW OR NO CLOUDS BELOW 12,000 FEET WITH NO
SIGNIFICANT WEATHER AND/OR OBSTRUCTION TO VISIBILITY.

MIZ047>049-052>055-059>063-066>070-074>076-081>083-210000-
SOUTHEAST LOWER MICHIGAN

CITY           SKY/WX    TMP DP  RH WIND       PRES   REMARKS
ADRIAN         SUNNY     81  65  58 NW7       29.90S
ALMA           SUNNY     76  67  73 W8        29.89S
ANN ARBOR      SUNNY     80  61  52 NW15      29.88S
BAD AXE        PTSUNNY   74  66  75 W5        29.88S
CARO           MOSUNNY   72  67  84 CALM      29.88F
DETROIT CITY   SUNNY     83  62  49 W9G18     29.87S
DETROIT        MOSUNNY   81  64  56 W8        29.88S
FLINT          PTSUNNY   79  64  60 N10       29.89R
GROSSE ILE     MOSUNNY   81  66  61 W5        29.87R
HILLSDALE      SUNNY     80  64  58 NW7       29.91S
HOWELL         SUNNY     77  62  60 W8        29.89R

CITY           SKY/WX    TMP DP  RH WIND       PRES   REMARKS
JACKSON        SUNNY     78  63  59 W7        29.90S
LAMBERTVILLE   SUNNY     81  64  57 W6        29.89S
LANSING        SUNNY     78  63  59 W12       29.90R
LAPEER         MOCLDY    73  65  75 N8G16     29.90R
MASON          MOSUNNY   78  63  60 W9G16     29.90R
MONROE         SUNNY     81  66  61 NW6       29.87S
MT. CLEMENS    PTSUNNY   80  64  57 SW6       29.86R
PONTIAC        PTSUNNY   79  63  57 W12       29.88S
PORT HOPE        N/A     71  67  87 E6        29.86S
PORT HURON     DRIZZLE   73  66  78 NW8       29.88R
TRI CITIES     MOSUNNY   77  65  66 W10G22    29.88S
TROY           SUNNY     81  60  48 W12G18    29.89S
SAGINAW HB     SUNNY     77  66  69 W8        29.87R
$$
MIZ043>046-050>051-056>058-064>065-071>073-077>080-210000-
SOUTHWEST LOWER MICHIGAN

CITY           SKY/WX    TMP DP  RH WIND       PRES   REMARKS
BATTLE CREEK   SUNNY     80  63  55 NW10      29.91S
BENTON HARBOR  SUNNY     81  65  58 W5        29.87F
BIG RAPIDS     PTSUNNY   73  64  73 NW8       29.91R
COLDWATER      SUNNY     81  64  55 NW7       29.90S
FREMONT        FAIR      76  60  57 W7        29.90R
HOLLAND        SUNNY     79  66  64 W3        29.90S
GRAND RAPIDS   MOSUNNY   79  66  64 W8        29.90S
IONIA          FAIR      77  62  58 W12       29.88S
KALAMAZOO      SUNNY     81  64  56 NW8       29.89S
LUDINGTON      SUNNY     69  63  79 NW5       29.91S
MARSHALL       SUNNY     79  64  59 W8        29.89S
MOUNT PLEASANT PTSUNNY   76  62  62 W8        29.88R
MUSKEGON       MOSUNNY   76  63  64 W6        29.90S
SOUTH HAVEN    SUNNY     81  67  62 CALM      29.88F
$$
MIZ016>042-210000-
NORTHERN LOWER MICHIGAN

CITY           SKY/WX    TMP DP  RH WIND       PRES   REMARKS
ALPENA         CLOUDY    69  65  86 NE9       29.88F
BEAVER ISLAND  PTSUNNY   65  63  92 NW3       29.90S
BELLAIRE       CLOUDY    65  60  83 W3        29.91R
CADILLAC       CLOUDY    67  62  83 NW8       29.93R
CHARLEVOIX     CLOUDY    64  64  97 W6        29.94R
FRANKFORT      PTSUNNY   69  60  73 N5        29.92R
GAYLORD        CLOUDY    64  60  87 VRB5      29.92R
GRAYLING       CLOUDY    69  63  82 NW7       29.93R
HARBOR SPRINGS CLOUDY    63  62  96 SW3       29.91R FOG
HOUGHTON LAKE  CLOUDY    70  61  73 NW7       29.91R
MANISTEE       SUNNY     68  59  73 NW6       29.93R
OSCODA         PTSUNNY   73  68  84 E5        29.86S
PELLSTON       CLOUDY    64  61  90 W6        29.91R
ROGERS CITY    CLOUDY    64  64 100 MISG      29.90S
TRAVERSE CITY  CLOUDY    68  60  75 W10       29.91R
$$
MIZ007>008-015-210000-
EASTERN UPPER MICHIGAN

CITY           SKY/WX    TMP DP  RH WIND       PRES   REMARKS
KINROSS        CLOUDY    63  61  94 N8        29.89S
MACKINAC ISLAN FOG       62  62 100 SW5       29.89S VSB<1/4
NEWBERRY       CLOUDY    64  61  91 W8        29.91R
S. S. MARIE    CLOUDY    64  62  93 CALM      29.89R FOG
MUNISING         N/A     64  60  87 N7        29.91R
$$
MIZ004>006-011>014-085-210000-
CENTRAL UPPER MICHIGAN

CITY           SKY/WX    TMP DP  RH WIND       PRES   REMARKS
MANISTIQUE     CLOUDY    67  62  85 N6        29.90R
ESCANABA       CLOUDY    66  61  82 CALM      29.92R
MENOMINEE      CLOUDY    70  63  78 CALM      29.89S
SAWYER-GWINN   CLOUDY    61  59  94 E6        29.92R
$$
MIZ001>003-009>011-084-210000-
WESTERN UPPER MICHIGAN

CITY           SKY/WX    TMP DP  RH WIND       PRES   REMARKS
IRON MOUNTAIN  CLOUDY    69  61  75 CALM      29.91S
HOUGHTON       CLOUDY    62  58  86 N5        29.92S
COPPER HARBOR    N/A     55  53  93 CALM      29.92R
IRONWOOD       CLOUDY    66  61  82 NE5       29.91S
$$

ABBREVIATIONS USED IN REMARKS
   TC - TEMPERATURE IN CELSIUS
  WCI - WIND CHILL INDEX
   HX - HEAT INDEX
  VSB - VISIBILITY




USA.gov is the U.S. government's official web portal to all federal, state and local government web resources and services.